Voltar ao catálogo

ANIK D2 R/B

PAM-D

AtivoHEO
NORAD 15387·ROCKET BODY·🇺🇸 United States

Lançado Nov 8, 1984 de Cape Canaveral Space Force Station

Loading…

Próximas Passagens (próximas 24 horas)

TLE

AtualizadoSource: Space-Track

Época: Sep 12, 2026, 21:23 UTC

1 15387U 84113D   26255.89133713  .00000716  00000-0  43236-3 0  9991
2 15387  25.1279 197.3189 7062355 249.2737  26.3556  2.52315671366950

Acompanhe ANIK D2 R/B em tempo real com AllMySat

Download on the App Store